Jacksonville, FL

10:28 PM EDT on June 21, 2018 (GMT -0400)
Jacksonville International

Weather History for KJAX - December, 2017

Change the Weather History Date:

Thursday, December 7, 2017

  Actual Average Record
Temperature  
Mean Temperature 53 °F 57 °F  
Max Temperature 57 °F 68 °F 83 °F (2013)
Min Temperature 49 °F 46 °F 21 °F (1937)
Degree Days  
Heating Degree Days 12 9  
Month to date heating degree days 16 59  
Since 1 July heating degree days 112 232  
Cooling Degree Days 0 1  
Month to date cooling degree days 16 7  
Year to date cooling degree days 3033 2651  
Growing Degree Days 2 (Base 50)    
Moisture  
Dew Point 51 °F    
Average Humidity 85    
Maximum Humidity 93    
Minimum Humidity 77    
Precipitation  
Precipitation 0.60 in 0.09 in 2.03 in (1875)
Month to date precipitation 0.61 0.62  
Year to date precipitation 68.30 50.21  
Snow  
Snow 0.00 in 0.00 in 0.00 in (2001)
Month to date snowfall 0.0 0.0  
Since 1 July snowfall 0.0 0.0  
Snow Depth 0.00 in    
Sea Level Pressure  
Sea Level Pressure 30.08 in    
Wind  
Wind Speed 10 mph (North)    
Max Wind Speed 15 mph    
Max Gust Speed 21 mph    
Visibility 4 miles    
Events Rain    
T = Trace of Precipitation, MM = Missing Value Source: NWS Daily Summary

Daily Weather History Graph

Daily Weather History Graph

Search for Another Location

Airport or City:

Astronomy

Dec. 07, 2017 Rise Set
Actual Time 7:10 AM EST 5:25 PM EST
Civil Twilight 6:44 AM EST 5:52 PM EST
Nautical Twilight 6:14 AM EST 6:22 PM EST
Astronomical Twilight 5:45 AM EST 6:51 PM EST
Moon 10:03 PM EST (12/7) 10:55 AM EST (12/7)
Length of Visible Light 11h 07m
Length of Day
10h 14m
Waning Gibbous, 78% of the Moon is Illuminated
Dec 7
Waning Gibbous
Dec 10
Last Quarter
Dec 18
New
Dec 26
First Quarter
Jan 1
Full

Hourly Weather History & Observations

Time (EST) Temp. Dew Point Humidity Pressure Visibility Wind Dir Wind Speed Gust Speed Precip Events Conditions
12:32 AM 55.0 °F 50.0 °F 83% 30.09 in 8.0 mi NNW 6.9 mph - 0.00 in Rain Light Rain
12:52 AM 53.6 °F 51.8 °F 94% 30.08 in 4.0 mi North 10.4 mph - 0.00 in Rain Light Rain
12:56 AM 54.0 °F 51.1 °F 90% 30.08 in 3.0 mi North 8.1 mph - 0.01 in Rain Rain
1:56 AM 54.0 °F 51.1 °F 90% 30.08 in 4.0 mi North 6.9 mph - 0.01 in Rain Light Rain
2:14 AM 53.1 °F 51.1 °F 93% 30.08 in 10.0 mi NNW 5.8 mph - 0.00 in   Overcast
2:52 AM 53.6 °F 51.8 °F 94% 30.09 in 10.0 mi NW 5.8 mph - 0.00 in   Overcast
2:56 AM 53.1 °F 51.1 °F 93% 30.09 in 10.0 mi NW 5.8 mph - 0.00 in   Overcast
3:56 AM 52.0 °F 50.0 °F 93% 30.08 in 5.0 mi North 11.5 mph - 0.00 in Rain Rain
4:15 AM 52.0 °F 50.0 °F 93% 30.08 in 5.0 mi North 10.4 mph - 0.01 in Rain Light Rain
4:56 AM 53.1 °F 51.1 °F 93% 30.08 in 5.0 mi North 6.9 mph - 0.05 in Rain Light Rain
5:56 AM 52.0 °F 51.1 °F 97% 30.07 in 4.0 mi North 6.9 mph - 0.03 in Rain Light Rain
6:56 AM 53.1 °F 51.1 °F 93% 30.09 in 2.0 mi North 8.1 mph - 0.00 in   Overcast
7:40 AM 53.1 °F 51.1 °F 93% 30.10 in 1.5 mi North 9.2 mph - 0.03 in Rain Heavy Rain
7:56 AM 52.0 °F 51.1 °F 97% 30.11 in 4.0 mi NNW 8.1 mph - 0.06 in Rain Rain
8:41 AM 53.1 °F 51.1 °F 93% 30.11 in 2.5 mi North 9.2 mph - 0.04 in Rain Light Rain
8:56 AM 53.1 °F 51.1 °F 93% 30.12 in 2.5 mi North 8.1 mph - 0.05 in Rain Light Rain
9:56 AM 54.0 °F 52.0 °F 93% 30.12 in 2.5 mi North 9.2 mph - 0.01 in Rain Light Rain
10:56 AM 55.0 °F 53.1 °F 93% 30.12 in 2.5 mi North 11.5 mph - 0.00 in   Light Drizzle
11:56 AM 55.9 °F 54.0 °F 93% 30.09 in 2.5 mi NE 10.4 mph - 0.01 in   Light Drizzle
12:56 PM 55.9 °F 54.0 °F 93% 30.07 in 2.0 mi NNE 11.5 mph - 0.00 in Rain Light Rain
1:56 PM 55.9 °F 53.1 °F 90% 30.06 in 2.5 mi North 10.4 mph - 0.01 in   Light Drizzle
2:56 PM 55.0 °F 53.1 °F 93% 30.04 in 2.5 mi North 11.5 mph - 0.00 in   Overcast
3:56 PM 55.0 °F 52.0 °F 89% 30.03 in 2.5 mi NNE 12.7 mph - 0.00 in Rain Light Rain
4:56 PM 54.0 °F 52.0 °F 93% 30.04 in 2.5 mi North 11.5 mph - 0.01 in Rain Light Rain
5:56 PM 53.1 °F 51.1 °F 93% 30.03 in 2.5 mi NNE 9.2 mph - 0.00 in   Overcast
6:56 PM 53.1 °F 51.1 °F 93% 30.04 in 2.5 mi North 11.5 mph - 0.01 in Rain Light Rain
7:56 PM 52.0 °F 50.0 °F 93% 30.05 in 2.5 mi North 10.4 mph - 0.06 in   Overcast
8:00 PM 52.0 °F 50.0 °F 93% 30.05 in 10.0 mi North 11.5 mph - N/A   Overcast
8:56 PM 51.1 °F 48.9 °F 92% 30.06 in 3.0 mi North 12.7 mph - 0.01 in Rain Rain
9:02 PM 51.1 °F 48.0 °F 89% 30.06 in 2.0 mi North 10.4 mph - 0.03 in Rain Heavy Rain
9:56 PM 50.0 °F 48.0 °F 93% 30.08 in 3.0 mi NNW 10.4 mph - 0.17 in Rain Light Rain
10:56 PM 48.9 °F 46.9 °F 93% 30.08 in 3.0 mi North 10.4 mph - 0.07 in Rain Light Rain
11:56 PM 48.9 °F 46.9 °F 93% 30.06 in 8.0 mi NNE 13.8 mph - 0.03 in   Overcast